| time (UTC) | temp F | wind direction | speed MPH | gust MPH | rain 1hr in | rain 24hr in | rain mn in | humidity % | barometer mb |
| 20260902144523 | 69 | 360 | 0.0 | 0.0 | 0.00 | 0.00 | 0.00 | 24 | 1017.6 |
| 20260902143019 | 68 | 360 | 0.0 | 0.0 | 0.00 | 0.00 | 0.00 | 26 | 1017.6 |
| 20260902141515 | 66 | 360 | 0.0 | 0.0 | 0.00 | 0.00 | 0.00 | 27 | 1017.5 |
| 20260902140014 | 66 | 360 | 0.0 | 0.0 | 0.00 | 0.00 | 0.00 | 28 | 1017.3 |
| 20260902134507 | 66 | 360 | 0.0 | 0.0 | 0.00 | 0.00 | 0.00 | 28 | 1017.1 |
| 20260902133011 | 66 | 360 | 0.0 | 0.0 | 0.00 | 0.00 | 0.00 | 28 | 1016.9 |
| 20260902131612 | 66 | 360 | 0.0 | 0.0 | 0.00 | 0.00 | 0.00 | 28 | 1016.6 |
| 20260902124557 | 67 | 360 | 0.0 | 0.0 | 0.00 | 0.00 | 0.00 | 27 | 1016.5 |
| 20260902123057 | 67 | 360 | 0.0 | 0.0 | 0.00 | 0.00 | 0.00 | 27 | 1016.4 |
| 20260902121557 | 67 | 360 | 0.0 | 0.0 | 0.00 | 0.00 | 0.00 | 27 | 1016.5 |
| 20260902120058 | 68 | 360 | 0.0 | 0.0 | 0.00 | 0.00 | 0.00 | 27 | 1016.4 |
| 20260902114612 | 67 | 360 | 0.0 | 8.0 | 0.00 | 0.00 | 0.00 | 27 | 1016.4 |
| 20260902113055 | 67 | 143 | 0.0 | 2.0 | 0.00 | 0.00 | 0.00 | 27 | 1016.4 |
| 20260902111554 | 68 | 360 | 0.0 | 0.0 | 0.00 | 0.00 | 0.00 | 26 | 1016.5 |
| 20260902104558 | 68 | 360 | 0.0 | 0.0 | 0.00 | 0.00 | 0.00 | 26 | 1016.4 |
| 20260902103102 | 68 | 360 | 0.0 | 0.0 | 0.00 | 0.00 | 0.00 | 26 | 1016.6 |
| 20260902101551 | 69 | 360 | 0.0 | 0.0 | 0.00 | 0.00 | 0.00 | 26 | 1016.4 |
| 20260902100051 | 69 | 360 | 0.0 | 0.0 | 0.00 | 0.00 | 0.00 | 25 | 1016.4 |
| 20260902094550 | 68 | 360 | 0.0 | 0.0 | 0.00 | 0.00 | 0.00 | 26 | 1016.5 |
| 20260902093050 | 67 | 360 | 0.0 | 0.0 | 0.00 | 0.00 | 0.00 | 27 | 1016.5 |
| 20260902091549 | 68 | 360 | 0.0 | 0.0 | 0.00 | 0.00 | 0.00 | 27 | 1016.7 |
| 20260902090048 | 68 | 360 | 0.0 | 0.0 | 0.00 | 0.00 | 0.00 | 27 | 1016.8 |
| 20260902084547 | 68 | 360 | 0.0 | 0.0 | 0.00 | 0.00 | 0.00 | 27 | 1016.8 |
| 20260902083046 | 67 | 360 | 0.0 | 4.0 | 0.00 | 0.00 | 0.00 | 28 | 1016.9 |
| 20260902081548 | 67 | 360 | 0.0 | 0.0 | 0.00 | 0.00 | 0.00 | 28 | 1017.0 |
| 20260902080051 | 67 | 360 | 0.0 | 0.0 | 0.00 | 0.00 | 0.00 | 29 | 1016.9 |
| 20260902074551 | 68 | 360 | 0.0 | 0.0 | 0.00 | 0.00 | 0.00 | 28 | 1016.8 |
| 20260902073049 | 68 | 360 | 0.0 | 13.0 | 0.00 | 0.00 | 0.00 | 29 | 1016.7 |
| 20260902071541 | 69 | 360 | 0.0 | 0.0 | 0.00 | 0.00 | 0.00 | 27 | 1016.7 |
| 20260902070038 | 70 | 360 | 0.0 | 0.0 | 0.00 | 0.00 | 0.00 | 27 | 1016.6 |
| 20260902064532 | 70 | 360 | 0.0 | 3.0 | 0.00 | 0.00 | 0.00 | 27 | 1016.4 |
| 20260902063029 | 70 | 360 | 0.0 | 0.0 | 0.00 | 0.00 | 0.00 | 26 | 1016.5 |
| 20260902061524 | 71 | 360 | 0.0 | 1.0 | 0.00 | 0.00 | 0.00 | 26 | 1016.4 |
| 20260902060020 | 72 | 360 | 0.0 | 0.0 | 0.00 | 0.00 | 0.00 | 23 | 1016.3 |
| 20260902054522 | 72 | 360 | 0.0 | 0.0 | 0.00 | 0.00 | 0.00 | 23 | 1016.5 |
| 20260902053011 | 73 | 360 | 0.0 | 0.0 | 0.00 | 0.00 | 0.00 | 21 | 1016.5 |
| 20260902051508 | 72 | 360 | 0.0 | 0.0 | 0.00 | 0.00 | 0.00 | 23 | 1016.5 |
| 20260902050004 | 73 | 360 | 0.0 | 0.0 | 0.00 | 0.00 | 0.00 | 21 | 1016.4 |
| 20260902044502 | 74 | 360 | 0.0 | 0.0 | 0.00 | 0.00 | 0.00 | 19 | 1016.2 |
| 20260902043001 | 74 | 360 | 0.0 | 0.0 | 0.00 | 0.00 | 0.00 | 18 | 1016.0 |
| 20260902041610 | 74 | 360 | 0.0 | 0.0 | 0.00 | 0.00 | 0.00 | 15 | 1015.9 |
| 20260902040103 | 75 | 360 | 0.0 | 0.0 | 0.00 | 0.00 | 0.00 | 13 | 1015.8 |
| 20260902034600 | 76 | 360 | 0.0 | 0.0 | 0.00 | 0.00 | 0.00 | 12 | 1015.4 |
| 20260902033106 | 77 | 360 | 0.0 | 0.0 | 0.00 | 0.00 | 0.00 | 12 | 1015.2 |
| 20260902031559 | 78 | 360 | 0.0 | 0.0 | 0.00 | 0.00 | 0.00 | 11 | 1015.0 |
| 20260902030059 | 79 | 360 | 0.0 | 0.0 | 0.00 | 0.00 | 0.00 | 10 | 1014.8 |
| 20260902024600 | 79 | 360 | 0.0 | 0.0 | 0.00 | 0.00 | 0.00 | 9 | 1014.6 |
| 20260902023057 | 80 | 360 | 0.0 | 0.0 | 0.00 | 0.00 | 0.00 | 8 | 1014.6 |
| 20260902021557 | 82 | 360 | 0.0 | 0.0 | 0.00 | 0.00 | 0.00 | 8 | 1014.5 |
| 20260902020059 | 83 | 360 | 0.0 | 0.0 | 0.00 | 0.00 | 0.00 | 7 | 1014.4 |
| 20260902014557 | 84 | 360 | 0.0 | 0.0 | 0.00 | 0.00 | 0.00 | 7 | 1014.4 |
| 20260902013056 | 85 | 360 | 0.0 | 0.0 | 0.00 | 0.00 | 0.00 | 6 | 1014.3 |
| 20260902011552 | 86 | 360 | 0.0 | 0.0 | 0.00 | 0.00 | 0.00 | 6 | 1014.3 |
| 20260902010048 | 88 | 360 | 0.0 | 0.0 | 0.00 | 0.00 | 0.00 | 6 | 1014.2 |
| 20260902004543 | 88 | 360 | 0.0 | 0.0 | 0.00 | 0.00 | 0.00 | 5 | 1014.4 |
| 20260902003044 | 89 | 360 | 0.0 | 0.0 | 0.00 | 0.00 | 0.00 | 5 | 1014.4 |
| 20260902001536 | 89 | 360 | 0.0 | 0.0 | 0.00 | 0.00 | 0.00 | 4 | 1014.5 |
| 20260902000031 | 90 | 360 | 0.0 | 6.0 | 0.00 | 0.00 | 0.00 | 4 | 1014.5 |
| 20260901234526 | 89 | 360 | 0.0 | 0.0 | 0.00 | 0.00 | 0.00 | 4 | 1014.5 |
| 20260901233022 | 89 | 360 | 0.0 | 0.0 | 0.00 | 0.00 | 0.00 | 5 | 1014.5 |
| 20260901231518 | 90 | 360 | 0.0 | 0.0 | 0.00 | 0.00 | 0.00 | 4 | 1014.5 |
| 20260901230017 | 89 | 360 | 0.0 | 1.0 | 0.00 | 0.00 | 0.00 | 7 | 1014.5 |
| 20260901224509 | 89 | 137 | 0.0 | 6.0 | 0.00 | 0.00 | 0.00 | 6 | 1014.6 |
| 20260901223011 | 89 | 138 | 0.0 | 8.0 | 0.00 | 0.00 | 0.00 | 6 | 1014.8 |
| 20260901221610 | 89 | 138 | 0.0 | 1.0 | 0.00 | 0.00 | 0.00 | 6 | 1014.6 |
| 20260901220122 | 89 | 360 | 0.0 | 0.0 | 0.00 | 0.00 | 0.00 | 6 | 1014.6 |
| 20260901214552 | 89 | 360 | 0.0 | 1.0 | 0.00 | 0.00 | 0.00 | 6 | 1014.8 |
| 20260901213111 | 89 | 360 | 0.0 | 7.0 | 0.00 | 0.00 | 0.00 | 6 | 1015.0 |
| 20260901211544 | 89 | 360 | 0.0 | 6.0 | 0.00 | 0.00 | 0.00 | 6 | 1015.1 |
| 20260901210047 | 88 | 360 | 0.0 | 1.0 | 0.00 | 0.00 | 0.00 | 6 | 1015.3 |
| 20260901204538 | 88 | 360 | 0.0 | 8.0 | 0.00 | 0.00 | 0.00 | 6 | 1015.5 |
| 20260901203048 | 88 | 132 | 0.0 | 0.0 | 0.00 | 0.00 | 0.00 | 6 | 1015.5 |
| 20260901201525 | 88 | 360 | 0.0 | 0.0 | 0.00 | 0.00 | 0.00 | 6 | 1016.0 |
| 20260901200027 | 87 | 360 | 0.0 | 0.0 | 0.00 | 0.00 | 0.00 | 6 | 1016.1 |
| 20260901194516 | 87 | 360 | 0.0 | 5.0 | 0.00 | 0.00 | 0.00 | 6 | 1016.3 |
| 20260901193012 | 86 | 360 | 0.0 | 14.0 | 0.00 | 0.00 | 0.00 | 7 | 1016.5 |
| 20260901191507 | 85 | 360 | 0.0 | 4.0 | 0.00 | 0.00 | 0.00 | 7 | 1016.7 |
| 20260901190007 | 84 | 360 | 0.0 | 0.0 | 0.00 | 0.00 | 0.00 | 7 | 1016.7 |
| 20260901184604 | 84 | 360 | 0.0 | 0.0 | 0.00 | 0.00 | 0.00 | 7 | 1016.8 |
| 20260901183100 | 83 | 360 | 0.0 | 0.0 | 0.00 | 0.00 | 0.00 | 7 | 1017.0 |
| 20260901181551 | 83 | 360 | 0.0 | 4.0 | 0.00 | 0.00 | 0.00 | 8 | 1017.2 |
| 20260901180046 | 82 | 360 | 0.0 | 1.0 | 0.00 | 0.00 | 0.00 | 8 | 1017.3 |
| 20260901174541 | 81 | 360 | 0.0 | 6.0 | 0.00 | 0.00 | 0.00 | 8 | 1017.5 |
| 20260901173050 | 80 | 360 | 0.0 | 0.0 | 0.00 | 0.00 | 0.00 | 8 | 1017.4 |
| 20260901171536 | 79 | 360 | 0.0 | 3.0 | 0.00 | 0.00 | 0.00 | 8 | 1017.3 |
| 20260901170028 | 79 | 360 | 0.0 | 1.0 | 0.00 | 0.00 | 0.00 | 8 | 1017.3 |
| 20260901164525 | 78 | 360 | 0.0 | 8.0 | 0.00 | 0.00 | 0.00 | 8 | 1017.3 |
| 20260901163019 | 77 | 360 | 0.0 | 1.0 | 0.00 | 0.00 | 0.00 | 8 | 1017.4 |
| 20260901161514 | 77 | 360 | 0.0 | 1.0 | 0.00 | 0.00 | 0.00 | 8 | 1017.4 |
| 20260901160009 | 76 | 360 | 0.0 | 1.0 | 0.00 | 0.00 | 0.00 | 8 | 1017.3 |
| 20260901154505 | 75 | 360 | 0.0 | 0.0 | 0.00 | 0.00 | 0.00 | 8 | 1017.1 |
| 20260901153002 | 74 | 360 | 0.0 | 18.0 | 0.00 | 0.00 | 0.00 | 8 | 1017.0 |
| 20260901151609 | 73 | 360 | 0.0 | 0.0 | 0.00 | 0.00 | 0.00 | 8 | 1017.0 |
| 20260901150056 | 72 | 360 | 0.0 | 0.0 | 0.00 | 0.00 | 0.00 | 7 | 1017.1 |